Weather in Glebichyovo

Russia / Saint-Petersburg and Leningrad Oblast     60°27′13″N   28°43′09″E
temp.,
°C
wind,
m/s
gust,
m/s
humid.,
%
clouds,
%
prec.,
mm/h
press.,
hPa
HPBL,
m
7 may, fri
fri700:00+2wnw349299 0.0 995364
03:00+2wnw2487100 0.0 996242
06:00+2w2394100 0.1 997178
09:00+3w1281100 0.2 999391
12:00+4wsw2376100 0.0 1000509
15:00+5wsw457118 0.0 1002689
18:00+6sw34729 0.0 1003537
21:00+4ssw3488100 0.0 100471
8 may, sat
sat800:00+4s249183 0.1 1004124
03:00+4nw239665 0.1 100474
06:00+3nw2386100 0.0 100396
09:00+5nnw3472100 0.0 1004334
12:00+6w3464100 0.0 1004656
15:00+5nw5773100 0.0 1005538
18:00+6nnw3761100 0.0 1006820
21:00+5wsw477619 0.0 1008183
9 may, sun
sun900:00+4wnw47805 0.0 1008111
03:00+3wnw510795 0.0 1009260
06:00+2w59723 0.0 1012276
09:00+4wsw466529 0.0 1014347
12:00+6sw575999 0.0 1015878
15:00+7sw51066100 0.0 1015751
18:00+7sw51171100 0.0 1016587
21:00+6sw5127198 0.0 1016348
10 may, mon
mon1000:00+5s3881100 0.0 1017183
03:00+5sse4892100 0.5 1016274
06:00+7ssw61292100 1.9 1016376
09:00+8ssw7129065 2.0 1017373
12:00+11sw7148382 0.0 1018418
15:00+13ssw71471100 0.0 1018599
18:00+13ssw61469100 0.0 1018540
21:00+12ssw7166977 0.0 1017378
11 may, tue
tue1100:00+11ssw71674100 0.0 1020365
03:00+11ssw81679100 0.0 1020346
06:00+10s61583100 0.0 1020343
09:00+12ssw8157394 0.0 1020382
12:00+13ssw7136754 0.0 1021467
15:00+14sw71161100 0.0 1022581
18:00+15ssw6115682 0.0 1021481
21:00+13s48683 0.0 1021115